Home   Weather   Nienburg (Weser)   Past weeks

Flag for Germany Past Weather in Nienburg (Weser), Lower Saxony, Germany — Yesterday and Last 2 Weeks

Now
48 °F

Drizzle. Fog.


Feels Like: 46 °F
Forecast: 41 / 45 °F
Wind: 6 mph from Southwest

Location: Wunstorf Airport

Current Time: Dec 9, 2016 at 6:37:18 pm

Latest Report: Dec 9, 2016 at 5:20 pm


Visibility: 2 mi

Pressure: 30.27 "Hg

Humidity: 94%

Dew Point: 46 °F

Location of Nienburg (Weser)Location

Past Weather in Nienburg (Weser) — Graph

°F

Nienburg (Weser) Temperature Yesterday

Maximum temperature yesterday: 52 °F (at 1:20 pm)
Minimum temperature yesterday: 45 °F (at 3:20 am)
Average temperature yesterday: 48 °F

High & Low Weather Summary for the Past Weeks

 TemperatureHumidityPressure
High52 °F (Dec 8, 1:20 pm)100% (Nov 25, 3:20 am)30.60 "Hg (Nov 25, 3:20 am)
Low18 °F (Dec 5, 4:20 am)46% (Dec 8, 7:20 pm)30.01 "Hg (Nov 26, 10:20 pm)
Average35 °F84%30.30 "Hg
* Reported Nov 24 4:20 pm — Dec 9 4:20 pm, Nienburg (Weser), Weather by CustomWeather, © 2016

Note: Actual official high and low records may vary slightly from our data, if they occured in-between our weather recording intervals... More about our weather records

Advertising

Nienburg (Weser) Weather History for the Previous 24 Hours

Scroll right to see more
 ConditionsComfort  
Time TempWeatherWind HumidityBarometerVisibility
4:20 pm
Fri, Dec 9
48 °FDrizzle. Fog.6 mph94%30.30 "Hg2 mi
3:20 pm48 °FDrizzle. Fog.12 mph94%30.30 "Hg3 mi
2:20 pm48 °FDrizzle. Fog.9 mph94%30.30 "Hg2 mi
1:20 pm48 °FDrizzle. Fog.12 mph94%30.30 "Hg2 mi
12:20 pm48 °FDrizzle. Fog.14 mph94%30.30 "Hg2 mi
11:20 am48 °FFog.13 mph94%30.30 "Hg3 mi
10:20 am48 °FFog.14 mph94%30.30 "Hg2 mi
9:20 am46 °FDrizzle. Fog.13 mph93%30.27 "Hg1 mi
8:46 am46 °FDrizzle. Fog.12 mph93%30.27 "Hg1 mi
8:20 am46 °FDrizzle. Fog.13 mph93%30.27 "Hg1 mi
7:20 am46 °FDrizzle. Fog.12 mph93%30.24 "Hg1 mi
6:20 am45 °FFog.12 mph93%30.24 "Hg1 mi
5:20 am45 °FFog.14 mph93%30.24 "Hg2 mi
4:20 am45 °FQuite cool.14 mph93%30.24 "HgN/A
3:20 am45 °FQuite cool.14 mph93%30.24 "HgN/A
2:20 am45 °FQuite cool.15 mph93%30.24 "HgN/A
1:20 am45 °FQuite cool.15 mph87%30.24 "HgN/A
12:20 am45 °FQuite cool.15 mph87%30.27 "HgN/A
11:20 pm
Thu, Dec 8
48 °FCool.16 mph62%30.27 "HgN/A
10:20 pm48 °FCool.15 mph58%30.24 "HgN/A
9:20 pm48 °FCool.13 mph50%30.24 "HgN/A
8:20 pm48 °FCool.16 mph46%30.24 "HgN/A
7:20 pm48 °FCool.14 mph46%30.27 "HgN/A
6:20 pm46 °FCool.12 mph53%30.24 "HgN/A
Weather by CustomWeather, © 2016

See weather overviewHow to use our weather pages